Eugene, Missouri, United States (65032)
Lat: 38.35N, Lon: 92.4W
Wx Zone: MOZ048
Local Info
Past Weather Observations for Today

NOTE: This archive is for the closest National Weather Service station to Eugene. Information may differ from the station used for current weather conditions.

Click here for Long-term Archive

Time Weather Temperature Dewpoint Humidity Pressure Winds Precip Visibility
22:56
Clear
64°F / 18°C 54°F / 12°C 68% 29.89 in
(1012 mb)
SSW 5.8 mph
(SSW 9 kph)
- 10SM
21:56
Clear
64°F / 18°C 54°F / 12°C 68% 29.92 in
(1013 mb)
SSW 3.5 mph
(SSW 6 kph)
- 10SM
20:56
Clear
64°F / 18°C 54°F / 12°C 68% 29.92 in
(1013 mb)
SSW 3.5 mph
(SSW 6 kph)
- 10SM
19:56
Clear
68°F / 20°C 54°F / 12°C 60% 29.92 in
(1013 mb)
SSW 4.6 mph
(SSW 7 kph)
- 10SM
18:56
Clear
68°F / 20°C 54°F / 12°C 60% 29.89 in
(1012 mb)
SW 8.1 mph
(SW 13 kph)
- 10SM
17:56
Clear
72°F / 22°C 55°F / 13°C 57% 29.92 in
(1013 mb)
SW 4.6 mph
(SW 7 kph)
- 10SM
16:56
Clear
77°F / 25°C 54°F / 12°C 44% 29.92 in
(1013 mb)
SW 4.6 mph
(SW 7 kph)
- 10SM
15:56
Clear
79°F / 26°C 52°F / 11°C 39% 29.92 in
(1013 mb)
SSW 9.2 mph
(SSW 15 kph)
- 10SM
14:56
Clear
79°F / 26°C 50°F / 10°C 37% 29.92 in
(1013 mb)
SSW 9.2 mph
(SSW 15 kph)
- 10SM
13:56
Clear
79°F / 26°C 48°F / 9°C 34% 29.95 in
(1014 mb)
SSW 9.2 mph
(SSW 15 kph)
- 10SM
12:56
Clear
77°F / 25°C 50°F / 10°C 39% 30.01 in
(1016 mb)
W 9.2 mph
(W 15 kph)
- 10SM
11:56
Clear
75°F / 24°C 50°F / 10°C 41% 30.04 in
(1017 mb)
SSW 11.5 mph
(SSW 19 kph)
- 10SM
10:56
Clear
73°F / 23°C 50°F / 10°C 44% 30.04 in
(1017 mb)
SSW 10.4 mph
(SSW 17 kph)
- 10SM
09:56
Clear
70°F / 21°C 50°F / 10°C 50% 30.06 in
(1018 mb)
SSW 10.4 mph
(SSW 17 kph)
- 10SM
08:56
Clear
64°F / 18°C 46°F / 8°C 52% 30.09 in
(1019 mb)
SSW 8.1 mph
(SSW 13 kph)
- 10SM
07:56
Clear
57°F / 14°C 48°F / 9°C 72% 30.09 in
(1019 mb)
SSW 5.8 mph
(SSW 9 kph)
- 10SM
06:56
Clear
50°F / 10°C 48°F / 9°C 94% 30.09 in
(1019 mb)
SSW 4.6 mph
(SSW 7 kph)
- 7SM
06:18
Clear
46°F / 8°C 45°F / 7°C 93% 30.09 in
(1019 mb)
Calm - 10SM
06:11
Clear
Fog And Mist
46°F / 8°C 45°F / 7°C 93% 30.09 in
(1019 mb)
Calm - 2 1/2SM
05:56
Clear
46°F / 8°C 45°F / 7°C 93% 30.09 in
(1019 mb)
Calm - 10SM
05:44
Clear
46°F / 8°C 45°F / 7°C 93% 30.09 in
(1019 mb)
Calm - 10SM
05:37
Clear
Fog And Mist
46°F / 8°C 45°F / 7°C 93% 30.09 in
(1019 mb)
Calm - 2SM
05:34
Clear
Fog And Mist
46°F / 8°C 45°F / 7°C 93% 30.09 in
(1019 mb)
Calm - 1SM
05:21
Clear
Fog
46°F / 8°C 45°F / 7°C 93% 30.09 in
(1019 mb)
Calm - 1/2SM
05:08
Clear
Fog And Mist
46°F / 8°C 45°F / 7°C 93% 30.09 in
(1019 mb)
Calm - 1SM
05:04
Clear
Fog
46°F / 8°C 45°F / 7°C 93% 30.09 in
(1019 mb)
Calm - 1/2SM
04:56
Clear
Fog And Mist
46°F / 8°C 46°F / 8°C 100% 30.09 in
(1019 mb)
Calm - 3/4SM
04:52
Clear
Fog And Mist
46°F / 8°C 46°F / 8°C 100% 30.09 in
(1019 mb)
Calm - 1SM
04:41
Clear
Fog And Mist
48°F / 9°C 46°F / 8°C 94% 30.09 in
(1019 mb)
Calm - 1 3/4SM
03:56
Clear
48°F / 9°C 46°F / 8°C 94% 30.09 in
(1019 mb)
Calm - 10SM
02:56
Clear
48°F / 9°C 46°F / 8°C 94% 30.09 in
(1019 mb)
Calm - 10SM
01:56
Clear
48°F / 9°C 46°F / 8°C 94% 30.12 in
(1020 mb)
Calm - 10SM
00:56
Clear
Fog And Mist
48°F / 9°C 46°F / 8°C 94% 30.12 in
(1020 mb)
Calm - 5SM
Time Weather Temperature Dewpoint Humidity Pressure Winds Precip Visibility


Weather for websites

WeatherForYou.com, LLC is not responsible for any damages or problems caused by this service. Current weather conditions are obtained from the closest station including government and personal stations which may have varying degrees of accuracy. Weather forecasts are derived from the NOAA NDFD. Like all things, this site belongs to Jesus Christ... He just trusts us to maintain it. If you have any questions or comments email webmaster@weatherforyou.com

Copyright © 2016, WeatherForYou.com LLC. All rights reserved.